Regional Weather Roundup
Issued by NWS

Home | Current Version | Previous Version | Graphics & Text | Print | Product List | Glossary On
Versions: 1 2 3 4 5 6 7 8 9 10 11 12 13 14 15 16 17 18 19 20 21 22 23 24 25 26 27 28 29 30 31 32 33 34 35 36 37 38 39 40 41 42 43 44 45 46 47 48 49 50
000
ASUS45 KCYS 251510
RWRWY

WYOMING REGIONAL WEATHER ROUNDUP
NATIONAL WEATHER SERVICE CHEYENNE WY
900 AM MDT MON MAY 25 2015

NOTE:  "FAIR" INDICATES FEW OR NO CLOUDS BELOW 12,000 FEET
WITH NO SIGNIFICANT WEATHER AND/OR OBSTRUCTIONS TO VISIBILITY.

WYZ001-251600-
YELLOWSTONE NATIONAL PARK

CITY           SKY/WX    TMP DP  RH WIND       PRES   REMARKS
LK YELLOWSTONE   N/A     40  34  79 SE3       30.04S
W YELLOWSTONE  NOT AVBL

$$
WYZ002>013-054>058-071-098>099-251600-
NORTHERN WYOMING

CITY           SKY/WX    TMP DP  RH WIND       PRES   REMARKS
JACKSON        PTSUNNY   46  39  76 CALM      30.00R
CODY           CLOUDY    50  43  76 NW3       29.96S
GREYBULL       CLOUDY    53  48  83 CALM      29.92R
WORLAND        CLOUDY    53  48  83 N6        29.92S
SHERIDAN       CLOUDY    52  48  86 W3        29.93S
BUFFALO        CLOUDY    49  46  90 N12G21    29.94R
GILLETTE       CLOUDY    50  48  93 N10       29.90S
HULETT         DRIZZLE   50  50 100 N9        29.90S
NEWCASTLE      PTSUNNY   55  45  67 N8        29.87R

$$
WYZ014>020-022>026-101>103-251600-
CENTRAL WYOMING

CITY           SKY/WX    TMP DP  RH WIND       PRES   REMARKS
BIG PINEY      FAIR      47  41  80 NE5       30.02S
PINEDALE       CLOUDY    45  37  76 CALM      30.03R
DUBOIS         FAIR      45  36  70 SE3       29.98F
LANDER         CLOUDY    50  43  77 SW3       29.96R
RIVERTON       CLOUDY    48  43  82 SW3       29.98R
CASPER         CLOUDY    50  43  77 W8        29.94S
DOUGLAS        LGT RAIN  48  47  96 NW10      29.91R FOG

$$
WYZ021-027>030-104>119-251600-
SOUTHERN WYOMING

CITY           SKY/WX    TMP DP  RH WIND       PRES   REMARKS
EVANSTON       CLOUDY    45  43  93 SW7       30.03R
KEMMERER       CLOUDY    45  41  87 CALM      30.03R
FORT BRIDGER   CLOUDY    45  45 100 W3        30.05R
ROCK SPRINGS   CLOUDY    44  39  82 S6        30.02R
DIXON          LGT RAIN  45  42  89 W6        30.03S
RAWLINS        CLOUDY    45  39  79 W10       29.99R
SARATOGA       CLOUDY    45  37  76 W9        30.00S
LARAMIE        CLOUDY    45  37  73 NW10      29.95R
CHEYENNE       CLOUDY    48  40  73 NW14G22   29.91S
TORRINGTON     LGT RAIN  50  49  96 NW7       29.86R FOG
PINE BLUFFS    LGT RAIN  46  45  93 NW6       29.90S

$$



USA.gov is the U.S. government's official web portal to all federal, state and local government web resources and services.